EUTELSAT 7B

Last updated on Wed Sep 17 2025 00:02:48 GMT+0000 (Coordinated Universal Time)

1 39163U 13022A 25259.58511869 .00000028 00000+0 00000+0 0 9994 2 39163 0.0676 354.2020 0000745 6.0538 213.1481 1.00271710 45218
UTC large
Height (km)
Speed (km/s)
/
Latitude / Longitude
Inclination (degrees)
Orbital Period (minutes)
Azimuth
Elevation
Range (km)
Doppler Factor

Next 0 passes for location: London (51.5072 / 0.1276)

Sorry there are no passes over London.